Weather Roundup
Issued by NWS

Home | Current Version | Previous Version | Graphics & Text | Print | Product List | Glossary Off
Versions: 1 2 3 4 5 6 7 8 9 10 11 12 13 14 15 16 17 18 19 20 21 22 23 24 25 26 27 28 29 30 31 32 33 34 35 36 37 38 39 40 41 42 43 44 45 46 47 48 49 50

541
NZUS93 KARX 221559
HRRWXR

CURRENT HOURLY OBSERVATIONS ACROSS
MUCH OF THE UPPER MISSISSIPPI VALLEY
NATIONAL WEATHER SERVICE LA CROSSE WI
1100 AM CDT SUN OCT 22 2017


...SOUTHEAST MINNESOTA...


CITY           SKY/WX    TMP DP  RH WIND       PRES   REMARKS
ROCHESTER      PTSUNNY   49  44  83 W9        30.03R
ROCHESTER/MAYO FAIR      50  41  72 W6        30.03R
WINONA         CLOUDY    54  45  71 W5        30.01R
AUSTIN         CLOUDY    50  41  71 W5        30.03S
ALBERT LEA     NOT AVBL
DODGE CENTER   CLOUDY    48  39  71 W7        30.02S
PRESTON        CLOUDY    48  41  76 NW10      30.02S
OWATONNA       CLOUDY    52  43  71 W7        30.02S
FARIBAULT      CLOUDY    52  43  71 SW6       30.03R
$$

...ELSEWHERE IN MINNESOTA...


CITY           SKY/WX    TMP DP  RH WIND       PRES   REMARKS
MINNEAPOLIS    CLOUDY    50  42  74 SW8       30.01R
INTNL FALLS    SUNNY     50  37  61 SW15G28   29.76R
DULUTH         CLOUDY    47  41  80 W15       29.88R
RED WING       CLOUDY    52  39  62 W6        30.01R
REDWOOD FALLS  SUNNY     54  37  52 W9        30.01R
MANKATO        MOSUNNY   51  40  65 SW5       30.03R
WORTHINGTON    SUNNY     52  37  56 W10       30.05S
FAIRMONT       SUNNY     54  40  59 W10       30.05R
$$

...SOUTHWEST WISCONSIN...


CITY           SKY/WX    TMP DP  RH WIND       PRES   REMARKS
LA CROSSE      CLOUDY    54  46  74 W7        30.01R
PRAIRIE DU CHI DRIZZLE   53  46  77 NW7       30.02R
BOSCOBEL       LGT RAIN  53  49  86 W5        30.03R
LONE ROCK      NOT AVBL
PLATTEVILLE    CLOUDY    52  51  95 NW10      30.00R
FORT MC COY    LGT RAIN  49  47  90 W5        30.02R
CAMP DOUGLAS   LGT RAIN  50  48  93 NW6       29.99R
MAUSTON-NEW LI LGT RAIN  51  48  89 NW6       29.99R
VIROQUA        CLOUDY    49  49  97 NW9       30.00R
WIS DELLS      RAIN      50  48  92 NW3       29.98R
$$

...ELSEWHERE IN WISCONSIN...


CITY           SKY/WX    TMP DP  RH WIND       PRES   REMARKS
MILWAUKEE      LGT RAIN  66  62  87 S8        29.92F
MADISON        LGT RAIN  52  49  89 NW9       29.96R
GREEN BAY      CLOUDY    54  52  93 W12       29.93R
EAU CLAIRE     NOT AVBL
BLACK RVR FLS  CLOUDY    51  48  90 W5        29.99R
MEDFORD        CLOUDY    47  44  88 W8        29.96R
WAUSAU         LGT RAIN  49  46  90 W9        29.94R
WIS RAPIDS     LGT RAIN  51  47  86 NW7       29.99R
MARSHFIELD     LGT RAIN  49  44  83 W8        29.97R
RICE LAKE      CLOUDY    49  41  72 SW3       29.98R
$$

...NORTHEAST IOWA...


CITY           SKY/WX    TMP DP  RH WIND       PRES   REMARKS
WATERLOO       CLOUDY    50  46  86 NW5       30.04R
DUBUQUE        LGT RAIN  51  47  86 NW12      30.03R
DECORAH        CLOUDY    50  46  87 NW3       30.02R
MASON CITY     CLOUDY    53  42  66 W9        30.06R
CHARLES CITY   CLOUDY    50  46  87 NW8       30.05R
OELWEIN        CLOUDY    52  50  93 NW8       30.04R
$$

...ELSEWHERE IN IOWA...


CITY           SKY/WX    TMP DP  RH WIND       PRES   REMARKS
DES MOINES     CLOUDY    54  43  66 NW7       30.08R
IOWA CITY      CLOUDY    54  48  80 N6        30.04R
FORT DODGE     CLOUDY    55  42  61 W7        30.08R
MARSHALLTOWN   CLOUDY    51  47  86 NW9       30.05R
CEDAR RAPIDS   CLOUDY    53  48  83 N6        30.02S
$$

...NORTHERN ILLINOIS...


CITY           SKY/WX    TMP DP  RH WIND       PRES   REMARKS
CHICAGO-OHARE  LGT RAIN  66  61  84 S13       29.94S
CHICAGO-MIDWAY CLOUDY    69  61  75 S14G23    29.95S
MOLINE         CLOUDY    54  49  83 NW13G24   29.99S
ROCKFORD       LGT RAIN  58  57  97 NW12      29.93R FOG
PEORIA         LGT RAIN  59  59 100 NW7       29.95R FOG
$$

NOTE: "FAIR" INDICATES FEW OR NO CLOUDS BELOW 12,000 FEET WITH NO
SIGNIFICANT WEATHER AND/OR OBSTRUCTIONS TO VISIBILITY. WIND
SPEEDS ARE IN MILES-PER-HOUR.




USA.gov is the U.S. government's official web portal to all federal, state and local government web resources and services.